This is the latest recevied weather packets stored in our database for station/object F6BIJ-13. If no packets are shown the sender has not sent any weather packets the latest 10 day(s).
| Time | Temp. | Humidity | Pressure | Rain* | Wind** | Luminosity | Snow |
|---|---|---|---|---|---|---|---|
| 1788350077 | 27.78° C | 45% | 1021 hPa | 0 mm | - | - | - |
| 1788348996 | 27.78° C | 43% | 1021 hPa | 0 mm | - | - | - |
| 1788348636 | 27.22° C | 41% | 1022 hPa | 0 mm | - | - | - |
| 1788348277 | 27.22° C | 45% | 1022 hPa | 0 mm | - | - | - |
| 1788347917 | 26.67° C | 47% | 1022 hPa | 0 mm | - | - | - |
| 1788347556 | 26.67° C | 48% | 1022 hPa | 0 mm | - | - | - |
| 1788347197 | 25.56° C | 48% | 1022 hPa | 0 mm | - | - | - |
| 1788346836 | 25.56° C | 47% | 1022 hPa | 0 mm | - | - | - |
| 1788346476 | 24.44° C | 47% | 1022 hPa | 0 mm | - | - | - |
| 1788346116 | 25.56° C | 48% | 1022 hPa | 0 mm | - | - | - |
| 1788345396 | 25.56° C | 50% | 1022 hPa | 0 mm | - | - | - |
| 1788345036 | 25.56° C | 48% | 1022 hPa | 0 mm | - | - | - |
| 1788344677 | 25.56° C | 49% | 1022 hPa | 0 mm | - | - | - |
| 1788344316 | 26.11° C | 49% | 1022 hPa | 0 mm | - | - | - |
| 1788343956 | 25.56° C | 51% | 1022 hPa | 0 mm | - | - | - |
| 1788343596 | 25° C | 50% | 1022 hPa | 0 mm | - | - | - |
| 1788343237 | 25° C | 50% | 1022 hPa | 0 mm | - | - | - |
| 1788342876 | 24.44° C | 48% | 1022 hPa | 0 mm | - | - | - |
| 1788342516 | 25° C | 50% | 1022 hPa | 0 mm | - | - | - |
| 1788342156 | 23.89° C | 54% | 1022 hPa | 0 mm | - | - | - |
| 1788341796 | 25° C | 51% | 1022 hPa | 0 mm | - | - | - |
| 1788341437 | 23.33° C | 54% | 1022 hPa | 0 mm | - | - | - |
| 1788341077 | 23.89° C | 53% | 1022 hPa | 0 mm | - | - | - |
| 1788340717 | 23.89° C | 54% | 1022 hPa | 0 mm | - | - | - |
| 1788340356 | 23.33° C | 54% | 1022 hPa | 0 mm | - | - | - |
* Rain latest 24 hours (hover to see other rain measurements)
** Current wind speed in m/s (hover to see current wind gust speed)